[Date Prev][Date Next][Thread Prev][Thread Next] - [Date Index][Thread Index][Author Index]
2 Line ISS Keps 9-8
- Subject: [sarex] 2 Line ISS Keps 9-8
- From: "Dave Larsen PhD" <doc@xxxxxxxxxxx>
- Date: Mon, 8 Sep 2003 07:05:59 -0700
ISS
1 25544U 98067A 03251.00630787 .00016662 00000-0 19120-3 0 4691
2 25544 51.6319 323.1571 0005954 219.5527 141.1546 15.62189876273943
----
Via the sarex mailing list at AMSAT.ORG courtesy of AMSAT-NA.
To unsubscribe, send "unsubscribe sarex" to Majordomo@amsat.org
AMSAT Home